Location: Wellington
(41.3000°S, 174.7830°E)
Time: 11:12:31
(UTC+12:00)

Aureole 3 Rocket - Pass Details

Date: 24 January 2019
Orbit: 398 x 1743 km, 82.5° (Epoch: 19 April)

Event Time Altitude Azimuth Distance (km) Brightness Sun altitude
Rises 21:41:14 0° 188° (S) 2,443 6.8 -9.2°
Reaches altitude 10° 21:43:05 10° 187° (S) 1,637 5.9 -9.4°
Maximum altitude 21:46:33 87° 102° (ESE) 549 2.8 -10.0°
Drops below altitude 10° 21:51:02 10° 8° (N) 2,094 5.4 -10.6°
Enters shadow 21:52:26 - 7° (N) 2,683 5.9 -10.9°
